JST713 YMML-YMHB

Flight info

Callsign JST713
Flight time 1h 5m
Altitude 35000
Route SUNTI4/34 SUNTI H169 IRSOM V33 TASUM DCT
Aircraft A320/M-SDE3FGHIRWY/LB1

Departure

Time 2026-04-30 09:24
Airport Melbourne Airport (YMML)

Arrival

Time 2026-04-30 10:30
Airport Hobart International Airport (YMHB)
Time Latitude Longitude Altitude Speed Heading
2026-04-30 08:43 -37.67540 144.84696 379 ft 0 kts 172°
2026-04-30 09:16 -37.67537 144.84696 379 ft 2 kts 172°
2026-04-30 09:16 -37.67520 144.84693 379 ft 3 kts 171°
2026-04-30 09:16 -37.67499 144.84689 380 ft 3 kts 171°
2026-04-30 09:16 -37.67479 144.84685 380 ft 3 kts 173°
2026-04-30 09:17 -37.67459 144.84683 381 ft 3 kts 188°
2026-04-30 09:17 -37.67443 144.84689 381 ft 3 kts 235°
2026-04-30 09:17 -37.67440 144.84695 381 ft 1 kts 261°
2026-04-30 09:17 -37.67442 144.84680 381 ft 3 kts 261°
2026-04-30 09:18 -37.67445 144.84654 381 ft 3 kts 261°
2026-04-30 09:18 -37.67447 144.84637 381 ft 1 kts 261°
2026-04-30 09:20 -37.67449 144.84615 380 ft 8 kts 261°
2026-04-30 09:20 -37.67507 144.84545 378 ft 15 kts 186°
2026-04-30 09:21 -37.67626 144.84562 374 ft 19 kts 172°
2026-04-30 09:21 -37.67737 144.84583 370 ft 15 kts 171°
2026-04-30 09:21 -37.67822 144.84544 365 ft 16 kts 261°
2026-04-30 09:21 -37.67840 144.84393 363 ft 18 kts 261°
2026-04-30 09:22 -37.67855 144.84260 360 ft 16 kts 261°
2026-04-30 09:22 -37.67871 144.84123 365 ft 15 kts 262°
2026-04-30 09:22 -37.67884 144.83983 355 ft 14 kts 279°
2026-04-30 09:22 -37.67818 144.83957 358 ft 4 kts 354°
2026-04-30 09:23 -37.67793 144.83954 358 ft 2 kts 353°
2026-04-30 09:23 -37.67779 144.83951 359 ft 3 kts 351°
2026-04-30 09:23 -37.67640 144.83924 364 ft 51 kts 352°
2026-04-30 09:23 -37.67072 144.83823 384 ft 111 kts 351°
2026-04-30 09:24 -37.66150 144.83649 417 ft 155 kts 352°
2026-04-30 09:24 -37.65049 144.83445 937 ft 158 kts 353°
2026-04-30 09:24 -37.63967 144.83243 1643 ft 154 kts 353°
2026-04-30 09:24 -37.62912 144.83037 2230 ft 156 kts 353°
2026-04-30 09:25 -37.61802 144.82822 2563 ft 171 kts 352°
2026-04-30 09:25 -37.60562 144.82583 2852 ft 190 kts 352°
2026-04-30 09:25 -37.59163 144.82456 3165 ft 214 kts
2026-04-30 09:25 -37.57703 144.83139 3614 ft 235 kts 24°
2026-04-30 09:26 -37.56199 144.84082 4309 ft 246 kts 23°
2026-04-30 09:26 -37.54648 144.85036 5204 ft 250 kts 22°
2026-04-30 09:26 -37.53067 144.85994 6052 ft 253 kts 22°
2026-04-30 09:26 -37.51465 144.86958 6927 ft 257 kts 22°
2026-04-30 09:27 -37.49833 144.87951 7673 ft 264 kts 22°
2026-04-30 09:27 -37.48170 144.88973 8444 ft 269 kts 24°
2026-04-30 09:27 -37.46731 144.90524 9190 ft 284 kts 53°
2026-04-30 09:27 -37.46080 144.92921 9923 ft 300 kts 82°
2026-04-30 09:28 -37.46373 144.95553 10612 ft 311 kts 109°
2026-04-30 09:28 -37.47573 144.97834 11276 ft 320 kts 136°
2026-04-30 09:28 -37.49548 144.99281 11486 ft 340 kts 166°
2026-04-30 09:28 -37.51928 144.99846 11802 ft 355 kts 175°
2026-04-30 09:29 -37.54407 145.00081 12408 ft 359 kts 179°
2026-04-30 09:29 -37.56915 145.00178 13112 ft 361 kts 180°
2026-04-30 09:29 -37.59441 145.00272 13785 ft 365 kts 180°
2026-04-30 09:29 -37.61993 145.00419 14405 ft 369 kts 179°
2026-04-30 09:30 -37.64572 145.00631 14958 ft 373 kts 178°
2026-04-30 09:30 -37.67173 145.00897 15489 ft 378 kts 177°
2026-04-30 09:30 -37.69809 145.01197 16009 ft 382 kts 177°
2026-04-30 09:30 -37.72475 145.01353 16538 ft 385 kts 185°
2026-04-30 09:31 -37.75144 145.01035 17070 ft 387 kts 189°
2026-04-30 09:31 -37.77828 145.00647 17628 ft 390 kts 190°
2026-04-30 09:31 -37.80538 145.00245 18226 ft 393 kts 190°
2026-04-30 09:31 -37.83266 144.99835 18768 ft 396 kts 191°
2026-04-30 09:32 -37.86011 144.99420 19266 ft 399 kts 191°
2026-04-30 09:32 -37.88779 144.99001 19778 ft 401 kts 191°
2026-04-30 09:32 -37.91557 144.98580 20296 ft 404 kts 191°
2026-04-30 09:32 -37.94356 144.98161 20809 ft 407 kts 189°
2026-04-30 09:33 -37.97211 144.98118 21282 ft 414 kts 178°
2026-04-30 09:33 -38.00027 144.98744 21757 ft 420 kts 166°
2026-04-30 09:33 -38.02806 144.99932 22220 ft 423 kts 162°
2026-04-30 09:33 -38.05590 145.01179 22684 ft 425 kts 162°
2026-04-30 09:34 -38.08392 145.02423 23165 ft 428 kts 163°
2026-04-30 09:34 -38.11208 145.03670 23633 ft 430 kts 163°
2026-04-30 09:34 -38.14038 145.04927 24052 ft 432 kts 163°
2026-04-30 09:34 -38.16887 145.06194 24248 ft 434 kts 163°
2026-04-30 09:35 -38.19736 145.07460 24294 ft 434 kts 163°
2026-04-30 09:35 -38.22590 145.08730 24301 ft 435 kts 163°
2026-04-30 09:35 -38.25447 145.10000 24299 ft 435 kts 163°
2026-04-30 09:35 -38.28310 145.11275 24300 ft 436 kts 163°
2026-04-30 09:36 -38.31173 145.12555 24303 ft 436 kts 163°
2026-04-30 09:36 -38.34033 145.13835 24297 ft 436 kts 163°
2026-04-30 09:36 -38.36892 145.15119 24299 ft 436 kts 162°
2026-04-30 09:36 -38.39749 145.16405 24300 ft 436 kts 162°
2026-04-30 09:37 -38.42609 145.17693 24298 ft 436 kts 162°
2026-04-30 09:37 -38.45469 145.18977 24302 ft 436 kts 163°
2026-04-30 09:37 -38.48335 145.20261 24299 ft 437 kts 163°
2026-04-30 09:37 -38.51202 145.21548 24299 ft 437 kts 163°
2026-04-30 09:38 -38.54073 145.22827 24298 ft 437 kts 163°
2026-04-30 09:38 -38.56951 145.24092 24297 ft 437 kts 163°
2026-04-30 09:38 -38.59829 145.25344 24294 ft 437 kts 163°
2026-04-30 09:38 -38.62708 145.26597 24293 ft 437 kts 163°
2026-04-30 09:39 -38.65586 145.27859 24302 ft 437 kts 163°
2026-04-30 09:39 -38.68468 145.29129 24300 ft 438 kts 163°
2026-04-30 09:39 -38.71352 145.30405 24296 ft 438 kts 163°
2026-04-30 09:39 -38.74237 145.31680 24302 ft 439 kts 163°
2026-04-30 09:40 -38.77123 145.32956 24294 ft 439 kts 163°
2026-04-30 09:40 -38.80010 145.34231 24302 ft 438 kts 163°
2026-04-30 09:40 -38.82890 145.35504 24294 ft 438 kts 163°
2026-04-30 09:40 -38.85775 145.36780 24294 ft 438 kts 163°
2026-04-30 09:41 -38.88626 145.38044 24309 ft 439 kts 163°
2026-04-30 09:41 -38.91522 145.39330 24669 ft 442 kts 163°
2026-04-30 09:41 -38.94440 145.40630 25059 ft 445 kts 163°
2026-04-30 09:41 -38.97369 145.41936 25429 ft 447 kts 163°
2026-04-30 09:42 -39.00318 145.43250 25790 ft 450 kts 163°
2026-04-30 09:42 -39.03286 145.44572 26150 ft 452 kts 163°
2026-04-30 09:42 -39.06272 145.45899 26505 ft 455 kts 163°
2026-04-30 09:42 -39.09275 145.47237 26858 ft 458 kts 163°
2026-04-30 09:43 -39.12290 145.48584 27202 ft 461 kts 163°
2026-04-30 09:43 -39.15328 145.49945 27529 ft 464 kts 163°
2026-04-30 09:43 -39.18383 145.51312 27862 ft 466 kts 163°
2026-04-30 09:43 -39.21458 145.52689 28193 ft 469 kts 163°
2026-04-30 09:44 -39.24552 145.54079 28519 ft 472 kts 163°
2026-04-30 09:44 -39.27661 145.55481 28851 ft 475 kts 163°
2026-04-30 09:44 -39.30787 145.56890 29186 ft 477 kts 163°
2026-04-30 09:44 -39.33931 145.58303 29535 ft 480 kts 163°
2026-04-30 09:45 -39.37101 145.59728 29877 ft 483 kts 163°
2026-04-30 09:45 -39.40276 145.61154 30215 ft 485 kts 163°
2026-04-30 09:45 -39.43478 145.62594 30515 ft 487 kts 163°
2026-04-30 09:45 -39.46689 145.64041 30800 ft 490 kts 163°
2026-04-30 09:46 -39.49915 145.65499 31098 ft 491 kts 163°
2026-04-30 09:46 -39.53135 145.66957 31500 ft 490 kts 163°
2026-04-30 09:46 -39.56349 145.68418 31916 ft 489 kts 163°
2026-04-30 09:46 -39.59558 145.69878 32304 ft 489 kts 163°
2026-04-30 09:47 -39.62771 145.71336 32705 ft 488 kts 163°
2026-04-30 09:47 -39.65975 145.72792 33099 ft 488 kts 163°
2026-04-30 09:47 -39.69175 145.74247 33271 ft 487 kts 163°
2026-04-30 09:47 -39.72329 145.75681 33305 ft 486 kts 163°
2026-04-30 09:48 -39.78708 145.78587 33311 ft 486 kts 163°
2026-04-30 09:48 -39.85100 145.81506 33295 ft 487 kts 163°
2026-04-30 09:49 -39.91488 145.84426 33302 ft 486 kts 163°
2026-04-30 09:49 -39.97871 145.87341 33301 ft 486 kts 163°
2026-04-30 09:50 -40.04252 145.90272 33295 ft 487 kts 163°
2026-04-30 09:50 -40.10640 145.93242 33300 ft 487 kts 163°
2026-04-30 09:51 -40.17016 145.96214 33300 ft 486 kts 163°
2026-04-30 09:51 -40.23392 145.99172 33308 ft 486 kts 163°
2026-04-30 09:52 -40.29771 146.02141 33297 ft 487 kts 163°
2026-04-30 09:52 -40.36152 146.05136 33296 ft 487 kts 163°
2026-04-30 09:53 -40.42547 146.08132 33301 ft 487 kts 163°
2026-04-30 09:53 -40.48935 146.11123 33289 ft 488 kts 163°
2026-04-30 09:54 -40.55340 146.14125 33299 ft 488 kts 163°
2026-04-30 09:54 -40.61732 146.17136 33302 ft 488 kts 163°
2026-04-30 09:55 -40.68124 146.20159 33305 ft 488 kts 163°
2026-04-30 09:55 -40.74524 146.23183 33311 ft 489 kts 163°
2026-04-30 09:56 -40.79848 146.25695 33310 ft 489 kts 163°
2026-04-30 09:56 -40.87287 146.29223 33313 ft 489 kts 163°
2026-04-30 09:57 -40.93690 146.32276 33317 ft 489 kts 163°
2026-04-30 09:57 -40.99062 146.34843 33312 ft 489 kts 163°
2026-04-30 09:58 -41.05437 146.37889 33317 ft 490 kts 163°
2026-04-30 09:58 -41.11846 146.40951 33322 ft 490 kts 163°
2026-04-30 09:59 -41.24406 146.48056 33328 ft 492 kts 157°
2026-04-30 10:00 -41.33684 146.53918 33331 ft 492 kts 157°
2026-04-30 10:01 -41.42956 146.59801 33326 ft 492 kts 157°
2026-04-30 10:02 -41.52239 146.65712 33328 ft 493 kts 157°
2026-04-30 10:02 -41.58435 146.69643 33328 ft 493 kts 157°
2026-04-30 10:03 -41.64627 146.73587 33329 ft 493 kts 157°
2026-04-30 10:03 -41.70806 146.77551 33326 ft 493 kts 156°
2026-04-30 10:04 -41.76944 146.81538 33242 ft 479 kts 157°
2026-04-30 10:04 -41.79895 146.83464 32719 ft 466 kts 157°
2026-04-30 10:04 -41.82788 146.85348 32058 ft 458 kts 157°
2026-04-30 10:04 -41.85602 146.87174 31387 ft 452 kts 157°
2026-04-30 10:05 -41.88455 146.89026 30689 ft 446 kts 157°
2026-04-30 10:05 -41.91198 146.90808 29970 ft 442 kts 157°
2026-04-30 10:05 -41.93985 146.92617 29169 ft 437 kts 157°
2026-04-30 10:05 -41.96713 146.94390 28417 ft 433 kts 157°
2026-04-30 10:06 -41.99380 146.96126 27702 ft 429 kts 157°
2026-04-30 10:06 -42.02051 146.97865 26989 ft 425 kts 157°
2026-04-30 10:06 -42.04703 146.99595 26295 ft 421 kts 156°
2026-04-30 10:06 -42.07325 147.01309 25628 ft 417 kts 156°
2026-04-30 10:07 -42.09924 147.03015 24945 ft 414 kts 156°
2026-04-30 10:07 -42.12461 147.04685 24722 ft 396 kts 156°
2026-04-30 10:07 -42.14882 147.06283 24529 ft 380 kts 156°
2026-04-30 10:07 -42.17229 147.07837 24165 ft 372 kts 154°
2026-04-30 10:08 -42.19315 147.09849 23702 ft 368 kts 133°
2026-04-30 10:08 -42.20805 147.12597 23180 ft 360 kts 112°
2026-04-30 10:08 -42.21573 147.15737 22675 ft 347 kts 92°
2026-04-30 10:08 -42.21609 147.18903 22186 ft 331 kts 73°
2026-04-30 10:09 -42.21008 147.21817 21674 ft 314 kts 57°
2026-04-30 10:09 -42.19912 147.24266 21197 ft 298 kts 41°
2026-04-30 10:09 -42.18468 147.26152 20731 ft 283 kts 27°
2026-04-30 10:09 -42.16806 147.27444 20266 ft 271 kts 15°
2026-04-30 10:10 -42.15036 147.28158 19735 ft 264 kts
2026-04-30 10:10 -42.13194 147.28298 19009 ft 266 kts 352°
2026-04-30 10:10 -42.11376 147.27860 18400 ft 265 kts 341°
2026-04-30 10:10 -42.09640 147.26995 17664 ft 268 kts 335°
2026-04-30 10:11 -42.07930 147.25937 16973 ft 271 kts 333°
2026-04-30 10:11 -42.06244 147.24805 17015 ft 275 kts 332°
2026-04-30 10:11 -42.04584 147.23599 16997 ft 266 kts 323°
2026-04-30 10:11 -42.03314 147.21810 16987 ft 281 kts 302°
2026-04-30 10:12 -42.02645 147.19264 16988 ft 300 kts 278°
2026-04-30 10:12 -42.02919 147.16441 16987 ft 314 kts 251°
2026-04-30 10:12 -42.04218 147.14037 16988 ft 329 kts 223°
2026-04-30 10:12 -42.06275 147.12600 16987 ft 339 kts 204°
2026-04-30 10:13 -42.08503 147.11543 16978 ft 341 kts 202°
2026-04-30 10:13 -42.10827 147.10852 16976 ft 346 kts 186°
2026-04-30 10:13 -42.13232 147.11218 16954 ft 351 kts 165°
2026-04-30 10:13 -42.15453 147.12614 16518 ft 354 kts 150°
2026-04-30 10:14 -42.17567 147.14312 16105 ft 354 kts 149°
2026-04-30 10:14 -42.19670 147.16030 15700 ft 354 kts 149°
2026-04-30 10:14 -42.23883 147.19482 14860 ft 354 kts 150°
2026-04-30 10:15 -42.25994 147.21201 14453 ft 354 kts 150°
2026-04-30 10:15 -42.28103 147.22911 14039 ft 354 kts 151°
2026-04-30 10:15 -42.30208 147.24620 13598 ft 352 kts 151°
2026-04-30 10:15 -42.32306 147.26322 13182 ft 350 kts 151°
2026-04-30 10:16 -42.34404 147.27950 12860 ft 346 kts 153°
2026-04-30 10:16 -42.36498 147.29512 12525 ft 342 kts 153°
2026-04-30 10:16 -42.38576 147.31039 12196 ft 338 kts 154°
2026-04-30 10:17 -42.42674 147.34057 11547 ft 332 kts 153°
2026-04-30 10:17 -42.46689 147.37044 10903 ft 326 kts 153°
2026-04-30 10:17 -42.48688 147.38540 10389 ft 331 kts 153°
2026-04-30 10:18 -42.50695 147.40048 10120 ft 325 kts 153°
2026-04-30 10:18 -42.52635 147.41513 9879 ft 315 kts 153°
2026-04-30 10:18 -42.54549 147.42955 9480 ft 313 kts 153°
2026-04-30 10:19 -42.58335 147.45806 8761 ft 308 kts 152°
2026-04-30 10:19 -42.60079 147.47479 8460 ft 308 kts 141°
2026-04-30 10:19 -42.61715 147.49343 8161 ft 306 kts 141°
2026-04-30 10:19 -42.63347 147.51199 7865 ft 306 kts 141°
2026-04-30 10:20 -42.64980 147.53054 7566 ft 306 kts 141°
2026-04-30 10:20 -42.68221 147.56738 6974 ft 303 kts 142°
2026-04-30 10:20 -42.69837 147.58580 6669 ft 303 kts 141°
2026-04-30 10:21 -42.71427 147.60395 6371 ft 302 kts 142°
2026-04-30 10:21 -42.73035 147.62227 6074 ft 301 kts 142°
2026-04-30 10:21 -42.74620 147.64033 5785 ft 294 kts 142°
2026-04-30 10:21 -42.76161 147.65796 5509 ft 286 kts 142°
2026-04-30 10:22 -42.77682 147.67535 5253 ft 284 kts 141°
2026-04-30 10:22 -42.79172 147.69242 5151 ft 276 kts 141°
2026-04-30 10:22 -42.80620 147.70903 5032 ft 267 kts 141°
2026-04-30 10:22 -42.82014 147.72500 4893 ft 258 kts 141°
2026-04-30 10:23 -42.83405 147.74094 4313 ft 267 kts 141°
2026-04-30 10:23 -42.84952 147.75495 3738 ft 268 kts 161°
2026-04-30 10:23 -42.86715 147.76002 3445 ft 249 kts 185°
2026-04-30 10:23 -42.88327 147.75703 3384 ft 221 kts 206°
2026-04-30 10:24 -42.89685 147.74882 3371 ft 209 kts 214°
2026-04-30 10:24 -42.90938 147.74041 3318 ft 193 kts 215°
2026-04-30 10:24 -42.92004 147.73104 3201 ft 171 kts 236°
2026-04-30 10:24 -42.92614 147.71848 3126 ft 154 kts 257°
2026-04-30 10:25 -42.92823 147.70465 2978 ft 145 kts 276°
2026-04-30 10:25 -42.92816 147.69089 2839 ft 145 kts 276°
2026-04-30 10:25 -42.92814 147.67713 2710 ft 145 kts 277°
2026-04-30 10:25 -42.92810 147.66336 2547 ft 146 kts 277°
2026-04-30 10:26 -42.92808 147.64949 2424 ft 147 kts 277°
2026-04-30 10:26 -42.92625 147.63614 2292 ft 141 kts 302°
2026-04-30 10:26 -42.92044 147.62576 2161 ft 137 kts 318°
2026-04-30 10:26 -42.91351 147.61691 1937 ft 135 kts 318°
2026-04-30 10:27 -42.90685 147.60788 1726 ft 135 kts 318°
2026-04-30 10:27 -42.90024 147.59888 1424 ft 136 kts 317°
2026-04-30 10:27 -42.89341 147.58961 1000 ft 144 kts 319°
2026-04-30 10:27 -42.88633 147.58010 736 ft 140 kts 319°
2026-04-30 10:28 -42.87967 147.57075 736 ft 138 kts 314°
2026-04-30 10:28 -42.87283 147.56132 697 ft 140 kts 317°
2026-04-30 10:28 -42.86593 147.55207 606 ft 138 kts 316°
2026-04-30 10:28 -42.85916 147.54287 427 ft 138 kts 317°
2026-04-30 10:29 -42.85230 147.53371 266 ft 138 kts 320°
2026-04-30 10:29 -42.84552 147.52451 69 ft 137 kts 317°
2026-04-30 10:29 -42.83927 147.51604 22 ft 98 kts 314°
2026-04-30 10:29 -42.83595 147.51154 23 ft 53 kts 315°
2026-04-30 10:30 -42.83396 147.50882 24 ft 29 kts 315°
2026-04-30 10:30 -42.83313 147.50709 22 ft 20 kts 269°
2026-04-30 10:30 -42.83361 147.50584 24 ft 11 kts 225°
2026-04-30 10:30 -42.83435 147.50564 22 ft 12 kts 149°
2026-04-30 10:31 -42.83499 147.50649 22 ft 13 kts 134°
2026-04-30 10:31 -42.83571 147.50689 22 ft 13 kts 208°
2026-04-30 10:31 -42.83628 147.50665 23 ft 9 kts 162°
2026-04-30 10:31 -42.83668 147.50707 23 ft 5 kts 146°
2026-04-30 10:32 -42.83698 147.50683 23 ft 4 kts 230°
2026-04-30 10:32 -42.83713 147.50663 22 ft 1 kts 221°